CARTOSAT-3

Last updated on Mon Jun 22 2026 00:02:52 GMT+0000 (Coordinated Universal Time)

1 44804U 19081A 26172.50423816 .00004302 00000+0 20654-3 0 9994 2 44804 97.4303 234.3026 0013542 134.6433 225.5909 15.19309359364120
UTC large
Height (km)
Speed (km/s)
/
Latitude / Longitude
Inclination (degrees)
Orbital Period (minutes)
Azimuth
Elevation
Range (km)
Doppler Factor

Next 0 passes for location: London (51.5072 / 0.1276)

No passes found over London.
CARTOSAT-3